Marrakech, Morocco

4:11 AM WEST on July 31, 2016 (GMT +0100)
Menara

Weather History for GMMX - May, 2013

Change the Weather History Date:

Friday, May 10, 2013

  Actual Average Record
Temperature  
Mean Temperature 82 °F -  
Max Temperature 100 °F 84 °F 102 °F (2012)
Min Temperature 64 °F 59 °F 51 °F (2001)
Cooling Degree Days 17    
Growing Degree Days 32 (Base 50)    
Moisture  
Dew Point 37 °F    
Average Humidity 20    
Maximum Humidity 40    
Minimum Humidity 4    
Precipitation  
Precipitation 0.00 in 0.02 in - ()
Sea Level Pressure  
Sea Level Pressure 30.04 in    
Wind  
Wind Speed 3 mph ()    
Max Wind Speed 12 mph    
Max Gust Speed -    
Visibility 5.3 miles    
Events      
Averages and records for this station are not official NWS values.
T = Trace of Precipitation, MM = Missing Value Source: Averaged Metar Reports

Daily Weather History Graph

Daily Weather History Graph

Search for Another Location

Airport or City:

Trip Planner

Search our weather history database for the weather conditions in past years. The results will help you decide how hot, cold, wet, or windy it might be!

Date:

Astronomy

May. 10, 2013 Rise Set
Actual Time 6:39 AM WEST 8:18 PM WEST
Civil Twilight 6:12 AM WEST 8:44 PM WEST
Nautical Twilight 5:41 AM WEST 9:16 PM WEST
Astronomical Twilight 5:07 AM WEST 9:50 PM WEST
Moon 6:54 AM WEST (5/10) 8:54 PM WEST (5/10)
Length of Visible Light 14h 32m
Length of Day
13h 39m
New Moon, 0% of the Moon is Illuminated
May 10
New Moon
May 18
First Quarter
May 25
Full
May 31
Last Quarter
Jun 8
New

Hourly Weather History & Observations

Time (WEST) Temp. Dew Point Humidity Pressure Visibility Wind Dir Wind Speed Gust Speed Precip Events Conditions
12:00 AM 78.8 °F 37.4 °F 23% 30.12 in 5.6 mi Calm Calm - N/A   Unknown
12:30 AM 77.0 °F 37.4 °F 24% 30.12 in 5.6 mi ENE 3.5 mph - N/A   Unknown
1:00 AM 78 °F 38 °F 14% 30.04 in 6 mi East 2.3 mph - -  
1:00 AM 78.8 °F 39.2 °F 24% 30.09 in 5.6 mi East 1.2 mph - N/A   Unknown
1:30 AM 77.0 °F 37.4 °F 24% 30.09 in 5.0 mi Calm Calm - N/A   Unknown
2:00 AM 75.2 °F 39.2 °F 27% 30.09 in 4.3 mi Calm Calm - N/A   Unknown
2:30 AM 71.6 °F 41.0 °F 33% 30.06 in 5.0 mi Calm Calm - N/A   Unknown
3:00 AM 71.6 °F 39.2 °F 31% 30.06 in 5.0 mi Calm Calm - N/A   Unknown
3:30 AM 71.6 °F 41.0 °F 33% 30.06 in 5.0 mi Calm Calm - N/A   Unknown
4:00 AM 68 °F 40 °F 25% 30.02 in 6 mi West 2.3 mph - -  
4:00 AM 68.0 °F 41.0 °F 37% 30.06 in 5.6 mi WNW 2.3 mph - N/A   Unknown
4:30 AM 69.8 °F 39.2 °F 33% 30.06 in 6.2 mi West 4.6 mph - N/A   Unknown
5:00 AM 68.0 °F 41.0 °F 37% 30.06 in 6.2 mi West 6.9 mph - N/A   Unknown
5:30 AM 68.0 °F 37.4 °F 33% 30.06 in 6.2 mi West 3.5 mph - N/A   Unknown
6:00 AM 64.4 °F 39.2 °F 40% 30.06 in 5.6 mi Calm Calm - N/A   Unknown
6:30 AM 64.4 °F 39.2 °F 40% 30.06 in 5.6 mi Calm Calm - N/A   Unknown
7:00 AM 66 °F 39 °F 25% 30.04 in 5 mi Calm Calm - -   Clear
7:00 AM 66.2 °F 39.2 °F 37% 30.06 in 5.0 mi Calm Calm - N/A   Unknown
7:30 AM 66.2 °F 39.2 °F 37% 30.06 in 5.0 mi Calm Calm - N/A   Unknown
8:00 AM 69.8 °F 39.2 °F 33% 30.06 in 4.3 mi Calm Calm - N/A   Unknown
8:30 AM 73.4 °F 39.2 °F 29% 30.06 in 3.7 mi Calm Calm - N/A   Unknown
9:00 AM 75.2 °F 39.2 °F 27% 30.06 in 4.3 mi Calm Calm - N/A   Unknown
9:30 AM 77.0 °F 39.2 °F 26% 30.06 in 5.0 mi Calm Calm - N/A   Unknown
10:00 AM 82 °F 40 °F 13% 29.98 in 5 mi SE 3.5 mph - -   Clear
10:00 AM 82.4 °F 41.0 °F 23% 30.06 in 5.0 mi SE 4.6 mph - N/A   Unknown
10:30 AM 84.2 °F 39.2 °F 20% 30.06 in 5.6 mi East 3.5 mph - N/A   Unknown
11:00 AM 86.0 °F 41.0 °F 20% 30.06 in 5.0 mi East 4.6 mph - N/A   Unknown
11:30 AM 87.8 °F 39.2 °F 18% 30.06 in 5.6 mi NE 5.8 mph - N/A   Unknown
12:00 PM 89.6 °F 33.8 °F 14% 30.04 in 5.6 mi NE 6.9 mph - N/A   Unknown
12:30 PM 91.4 °F 37.4 °F 15% 30.04 in 5.6 mi NNE 6.9 mph - N/A   Unknown
1:00 PM 93 °F 37 °F 7% 29.92 in 6 mi NNE 5.8 mph - -   Clear
1:00 PM 93.2 °F 37.4 °F 14% 30.04 in - NNE 5.8 mph - N/A   Clear
1:30 PM 95.0 °F 37.4 °F 13% 30.04 in - North 5.8 mph - N/A   Clear
2:00 PM 96.8 °F 30.2 °F 10% 30.01 in - North 5.8 mph - N/A   Clear
2:30 PM 98.6 °F 32.0 °F 10% 30.01 in - NNW 3.5 mph - N/A   Clear
3:00 PM 98.6 °F 30.2 °F 9% 30.01 in - NW 10.4 mph - N/A   Clear
3:30 PM 100.4 °F 28.4 °F 8% 30.01 in - WNW 8.1 mph - N/A   Clear
4:00 PM 100 °F 28 °F 4% 29.87 in 6 mi WNW 9.2 mph - -   Clear
4:00 PM 100.4 °F 28.4 °F 8% 30.01 in - WNW 9.2 mph - N/A   Clear
4:30 PM 100.4 °F 28.4 °F 8% 29.98 in - West 9.2 mph - N/A   Clear
5:00 PM 100.4 °F 28.4 °F 8% 29.98 in 6.2 mi NW 8.1 mph - N/A   Unknown
5:30 PM 100.4 °F 28.4 °F 8% 29.98 in - NW 10.4 mph - N/A   Clear
6:00 PM 100.4 °F 30.2 °F 9% 29.98 in - NNW 8.1 mph - N/A   Clear
6:30 PM 96.8 °F 33.8 °F 11% 29.98 in 5.6 mi NNW 11.5 mph - N/A   Unknown
7:00 PM 96 °F 35 °F 6% 29.88 in 6 mi NNW 11.5 mph - -   Clear
7:00 PM 95.0 °F 32.0 °F 11% 30.01 in 5.6 mi NNW 11.5 mph - N/A   Unknown
7:30 PM 95.0 °F 32.0 °F 11% 30.01 in 5.6 mi NW 9.2 mph - N/A   Unknown
8:00 PM 93.2 °F 37.4 °F 14% 30.01 in 5.6 mi NNW 8.1 mph - N/A   Unknown
8:30 PM 89.6 °F 39.2 °F 17% 30.04 in 5.0 mi NNW 9.2 mph - N/A   Unknown
9:00 PM 87.8 °F 39.2 °F 18% 30.04 in 5.0 mi North 6.9 mph - N/A   Unknown
9:30 PM 87.8 °F 39.2 °F 18% 30.06 in 5.0 mi NNE 6.9 mph - N/A   Unknown
10:00 PM 85 °F 41 °F 12% 29.99 in 5 mi North 5.8 mph - -   Clear
10:00 PM 86.0 °F 41.0 °F 20% 30.06 in 5.0 mi NNE 5.8 mph - N/A   Unknown
10:30 PM 84.2 °F 39.2 °F 20% 30.09 in 5.0 mi NNE 5.8 mph - N/A   Unknown
11:00 PM 82.4 °F 39.2 °F 21% 30.09 in 5.0 mi NE 5.8 mph - N/A   Unknown
11:30 PM 80.6 °F 41.0 °F 24% 30.09 in 5.0 mi ENE 6.9 mph - N/A   Unknown